Time,TemperatureF,DewpointF,PressureIn,WindDirection,WindDirectionDegrees,WindSpeedMPH,WindSpeedGustMPH,Humidity,HourlyPrecipIn,Conditions,Clouds,dailyrainin,SoftwareType,DateUTC
2013-03-11 00:02:00,45.0,32.0,30.14,SSE,153,4.0,12.0,61,0.00,,,0.00,,2013-03-11 04:02:00,
2013-03-11 00:12:00,45.0,32.0,30.14,SSE,153,4.0,12.0,61,0.00,,,0.00,,2013-03-11 04:12:00,
2013-03-11 00:22:00,45.0,32.0,30.14,SSE,154,5.0,10.0,61,0.00,,,0.00,,2013-03-11 04:22:00,
2013-03-11 00:32:00,45.0,33.0,30.14,South,178,5.0,8.0,62,0.00,,,0.00,,2013-03-11 04:32:00,
2013-03-11 00:43:00,45.0,33.0,30.14,South,178,5.0,8.0,62,0.00,,,0.00,,2013-03-11 04:43:00,
2013-03-11 00:53:00,45.0,33.0,30.12,SSE,155,5.0,11.0,62,0.00,,,0.00,,2013-03-11 04:53:00,
2013-03-11 01:03:00,45.0,33.0,30.12,South,185,5.0,10.0,63,0.00,,,0.00,,2013-03-11 05:03:00,
2013-03-11 01:12:00,45.0,33.0,30.12,South,185,5.0,10.0,63,0.00,,,0.00,,2013-03-11 05:12:00,
2013-03-11 01:22:00,45.0,33.0,30.12,SSW,194,7.0,13.0,63,0.00,,,0.00,,2013-03-11 05:22:00,
2013-03-11 01:32:00,45.0,34.0,30.11,South,187,4.0,9.0,65,0.00,,,0.00,,2013-03-11 05:32:00,
2013-03-11 01:43:00,45.0,34.0,30.11,South,187,4.0,9.0,65,0.00,,,0.00,,2013-03-11 05:43:00,
2013-03-11 01:52:00,44.0,34.0,30.10,South,184,6.0,13.0,67,0.00,,,0.00,,2013-03-11 05:52:00,
2013-03-11 02:02:00,44.0,34.0,30.10,South,178,7.0,13.0,69,0.00,,,0.00,,2013-03-11 06:02:00,
2013-03-11 02:12:00,44.0,34.0,30.10,South,178,7.0,13.0,69,0.00,,,0.00,,2013-03-11 06:12:00,
2013-03-11 02:22:00,44.0,35.0,30.10,South,169,5.0,11.0,70,0.00,,,0.00,,2013-03-11 06:22:00,
2013-03-11 02:32:00,44.0,36.0,30.09,South,171,5.0,9.0,72,0.00,,,0.00,,2013-03-11 06:32:00,
2013-03-11 02:42:00,44.0,36.0,30.09,South,171,5.0,9.0,72,0.00,,,0.00,,2013-03-11 06:42:00,
2013-03-11 02:53:00,43.0,36.0,30.09,South,171,5.0,8.0,75,0.00,,,0.00,,2013-03-11 06:53:00,
2013-03-11 03:03:00,43.0,36.0,30.09,South,182,5.0,9.0,77,0.00,,,0.00,,2013-03-11 07:03:00,
2013-03-11 03:12:00,43.0,36.0,30.09,South,182,5.0,9.0,77,0.00,,,0.00,,2013-03-11 07:12:00,
2013-03-11 03:22:00,43.0,38.0,30.09,South,174,5.0,10.0,81,0.00,,,0.00,,2013-03-11 07:22:00,
2013-03-11 03:32:00,43.0,38.0,30.07,South,187,4.0,12.0,83,0.00,,,0.00,,2013-03-11 07:32:00,
2013-03-11 03:42:00,43.0,38.0,30.07,South,187,4.0,12.0,83,0.00,,,0.00,,2013-03-11 07:42:00,
2013-03-11 03:52:00,43.0,39.0,30.07,South,191,7.0,12.0,87,0.00,,,0.00,,2013-03-11 07:52:00,
2013-03-11 04:02:00,43.0,41.0,30.05,SSW,196,6.0,12.0,91,0.00,,,0.00,,2013-03-11 08:02:00,
2013-03-11 04:12:00,43.0,41.0,30.05,SSW,196,6.0,12.0,91,0.00,,,0.00,,2013-03-11 08:12:00,
2013-03-11 04:22:00,43.0,41.0,30.05,SSW,198,7.0,13.0,92,0.00,,,0.00,,2013-03-11 08:22:00,
2013-03-11 04:32:00,43.0,42.0,30.05,SSW,197,8.0,13.0,95,0.00,,,0.00,,2013-03-11 08:32:00,
2013-03-11 04:42:00,43.0,42.0,30.05,SSW,197,8.0,13.0,95,0.00,,,0.00,,2013-03-11 08:42:00,
2013-03-11 04:52:00,43.0,42.0,30.04,South,185,9.0,15.0,95,0.00,,,0.00,,2013-03-11 08:52:00,
2013-03-11 05:02:00,43.0,42.0,30.03,South,186,8.0,12.0,96,0.00,,,0.00,,2013-03-11 09:02:00,
2013-03-11 05:12:00,43.0,42.0,30.03,South,186,8.0,12.0,96,0.00,,,0.00,,2013-03-11 09:12:00,
2013-03-11 05:23:00,43.0,42.0,30.02,SSW,197,6.0,16.0,96,0.00,,,0.00,,2013-03-11 09:23:00,
2013-03-11 05:32:00,43.0,42.0,30.02,SSW,197,6.0,14.0,97,0.00,,,0.00,,2013-03-11 09:32:00,
2013-03-11 05:42:00,43.0,42.0,30.02,SSW,197,6.0,14.0,97,0.00,,,0.00,,2013-03-11 09:42:00,
2013-03-11 05:52:00,42.0,41.0,30.02,South,180,7.0,12.0,97,0.00,,,0.00,,2013-03-11 09:52:00,
2013-03-11 06:02:00,43.0,42.0,30.02,South,188,9.0,15.0,97,0.00,,,0.00,,2013-03-11 10:02:00,
2013-03-11 06:12:00,43.0,42.0,30.02,South,188,9.0,15.0,97,0.00,,,0.00,,2013-03-11 10:12:00,
2013-03-11 06:22:00,43.0,42.0,30.01,SSW,205,7.0,13.0,98,0.00,,,0.00,,2013-03-11 10:22:00,
2013-03-11 06:32:00,43.0,42.0,30.02,SSW,199,8.0,14.0,98,0.00,,,0.00,,2013-03-11 10:32:00,
2013-03-11 06:42:00,43.0,42.0,30.02,SSW,199,8.0,14.0,98,0.00,,,0.00,,2013-03-11 10:42:00,
2013-03-11 06:52:00,43.0,42.0,30.01,SSW,194,9.0,15.0,98,0.00,,,0.00,,2013-03-11 10:52:00,
2013-03-11 07:02:00,42.0,41.0,30.02,SSW,201,8.0,14.0,98,0.00,,,0.00,,2013-03-11 11:02:00,
2013-03-11 07:12:00,42.0,41.0,30.02,SSW,201,8.0,14.0,98,0.00,,,0.00,,2013-03-11 11:12:00,
2013-03-11 07:22:00,42.0,41.0,30.02,SSW,196,9.0,16.0,98,0.00,,,0.00,,2013-03-11 11:22:00,
2013-03-11 07:33:00,42.0,41.0,30.01,SSW,200,8.0,16.0,98,0.00,,,0.00,,2013-03-11 11:33:00,
2013-03-11 07:42:00,42.0,41.0,30.01,SSW,200,8.0,16.0,98,0.00,,,0.00,,2013-03-11 11:42:00,
2013-03-11 07:53:00,42.0,41.0,30.02,SSW,198,7.0,13.0,98,0.00,,,0.00,,2013-03-11 11:53:00,
2013-03-11 08:02:00,42.0,41.0,30.01,SSW,198,7.0,11.0,98,0.00,,,0.00,,2013-03-11 12:02:00,
2013-03-11 08:12:00,42.0,41.0,30.01,SSW,198,7.0,11.0,98,0.00,,,0.00,,2013-03-11 12:12:00,
2013-03-11 08:22:00,43.0,42.0,30.02,SSW,198,8.0,12.0,98,0.00,,,0.00,,2013-03-11 12:22:00,
2013-03-11 08:32:00,43.0,42.0,30.01,SSW,211,9.0,22.0,98,0.00,,,0.00,,2013-03-11 12:32:00,
2013-03-11 08:43:00,43.0,42.0,30.01,SSW,211,9.0,22.0,98,0.00,,,0.00,,2013-03-11 12:43:00,
2013-03-11 08:53:00,43.0,42.0,30.01,SSW,192,12.0,17.0,98,0.00,,,0.00,,2013-03-11 12:53:00,
2013-03-11 09:02:00,43.0,42.0,30.02,SSW,206,13.0,21.0,98,0.00,,,0.00,,2013-03-11 13:02:00,
2013-03-11 09:12:00,43.0,42.0,30.02,SSW,206,13.0,21.0,98,0.00,,,0.00,,2013-03-11 13:12:00,
2013-03-11 09:22:00,43.0,43.0,30.02,SSW,192,11.0,23.0,99,0.00,,,0.00,,2013-03-11 13:22:00,
2013-03-11 09:32:00,43.0,43.0,30.02,SSW,213,8.0,22.0,99,0.00,,,0.00,,2013-03-11 13:32:00,
2013-03-11 09:42:00,43.0,43.0,30.02,SSW,213,8.0,22.0,99,0.00,,,0.00,,2013-03-11 13:42:00,
2013-03-11 09:53:00,43.0,43.0,30.01,SSW,194,13.0,20.0,99,0.00,,,0.00,,2013-03-11 13:53:00,
2013-03-11 10:02:00,43.0,43.0,30.01,SW,221,14.0,21.0,99,0.00,,,0.00,,2013-03-11 14:02:00,
2013-03-11 10:12:00,43.0,43.0,30.01,SW,221,14.0,21.0,99,0.00,,,0.00,,2013-03-11 14:12:00,
2013-03-11 10:22:00,43.0,43.0,30.01,SSW,193,14.0,22.0,99,0.00,,,0.00,,2013-03-11 14:22:00,
2013-03-11 10:33:00,43.0,43.0,30.01,SSW,196,16.0,24.0,99,0.00,,,0.00,,2013-03-11 14:33:00,
2013-03-11 10:42:00,43.0,43.0,30.01,SSW,196,16.0,24.0,99,0.00,,,0.00,,2013-03-11 14:42:00,
2013-03-11 10:53:00,43.0,43.0,30.01,SW,227,11.0,18.0,99,0.00,,,0.00,,2013-03-11 14:53:00,
2013-03-11 11:02:00,43.0,43.0,29.99,South,175,11.0,20.0,99,0.00,,,0.00,,2013-03-11 15:02:00,
2013-03-11 11:13:00,43.0,43.0,29.99,South,175,11.0,20.0,99,0.00,,,0.00,,2013-03-11 15:13:00,
2013-03-11 11:22:00,43.0,43.0,29.99,SSW,194,9.0,17.0,99,0.00,,,0.00,,2013-03-11 15:22:00,
2013-03-11 11:32:00,43.0,43.0,30.00,South,187,12.0,18.0,99,0.00,,,0.00,,2013-03-11 15:32:00,
2013-03-11 11:42:00,43.0,43.0,30.00,South,187,12.0,18.0,99,0.00,,,0.00,,2013-03-11 15:42:00,
2013-03-11 11:53:00,43.0,43.0,29.98,SSW,192,10.0,18.0,99,0.00,,,0.00,,2013-03-11 15:53:00,
2013-03-11 12:02:00,43.0,43.0,29.98,South,178,10.0,16.0,99,0.00,,,0.00,,2013-03-11 16:02:00,
2013-03-11 12:13:00,43.0,43.0,29.98,South,178,10.0,16.0,99,0.00,,,0.00,,2013-03-11 16:13:00,
2013-03-11 12:22:00,43.0,43.0,29.97,South,188,12.0,20.0,99,0.00,,,0.00,,2013-03-11 16:22:00,
2013-03-11 12:32:00,43.0,43.0,29.96,SSW,192,12.0,21.0,99,0.00,,,0.00,,2013-03-11 16:32:00,
2013-03-11 12:43:00,43.0,43.0,29.96,SSW,192,12.0,21.0,99,0.00,,,0.00,,2013-03-11 16:43:00,
2013-03-11 12:52:00,43.0,43.0,29.96,South,191,11.0,18.0,99,0.00,,,0.00,,2013-03-11 16:52:00,
2013-03-11 13:02:00,43.0,43.0,29.96,SSW,195,11.0,22.0,99,0.00,,,0.00,,2013-03-11 17:02:00,
2013-03-11 13:15:00,43.0,43.0,29.96,SSW,195,11.0,22.0,99,0.00,,,0.00,,2013-03-11 17:15:00,
2013-03-11 13:27:00,43.0,43.0,29.95,South,173,10.0,21.0,99,0.00,,,0.00,,2013-03-11 17:27:00,
2013-03-11 13:36:00,43.0,43.0,29.95,South,179,11.0,17.0,99,0.00,,,0.00,,2013-03-11 17:36:00,
2013-03-11 13:42:00,43.0,43.0,29.95,South,179,11.0,17.0,99,0.00,,,0.00,,2013-03-11 17:42:00,
2013-03-11 13:53:00,43.0,43.0,29.94,SSW,192,11.0,17.0,99,0.00,,,0.00,,2013-03-11 17:53:00,
2013-03-11 14:02:00,43.0,43.0,29.93,South,180,10.0,19.0,99,0.00,,,0.00,,2013-03-11 18:02:00,
2013-03-11 14:12:00,43.0,43.0,29.93,South,180,10.0,19.0,99,0.00,,,0.00,,2013-03-11 18:12:00,
2013-03-11 14:23:00,43.0,43.0,29.92,South,178,10.0,17.0,99,0.00,,,0.00,,2013-03-11 18:23:00,
2013-03-11 14:32:00,43.0,43.0,29.90,South,176,10.0,18.0,99,0.00,,,0.00,,2013-03-11 18:32:00,
2013-03-11 14:42:00,43.0,43.0,29.90,South,176,10.0,18.0,99,0.00,,,0.00,,2013-03-11 18:42:00,
2013-03-11 14:53:00,43.0,43.0,29.89,South,182,7.0,12.0,99,0.00,,,0.00,,2013-03-11 18:53:00,
2013-03-11 15:02:00,44.0,44.0,29.89,South,177,8.0,11.0,99,0.00,,,0.00,,2013-03-11 19:02:00,
2013-03-11 15:12:00,44.0,44.0,29.89,South,177,8.0,11.0,99,0.00,,,0.00,,2013-03-11 19:12:00,
2013-03-11 15:23:00,44.0,44.0,29.88,South,189,7.0,10.0,99,0.00,,,0.00,,2013-03-11 19:23:00,
2013-03-11 15:33:00,44.0,44.0,29.89,South,188,6.0,9.0,99,0.00,,,0.00,,2013-03-11 19:33:00,
2013-03-11 15:42:00,44.0,44.0,29.89,South,188,6.0,9.0,99,0.00,,,0.00,,2013-03-11 19:42:00,
2013-03-11 15:53:00,45.0,45.0,29.88,South,180,7.0,10.0,99,0.00,,,0.00,,2013-03-11 19:53:00,
2013-03-11 16:02:00,45.0,45.0,29.86,South,179,5.0,12.0,99,0.00,,,0.00,,2013-03-11 20:02:00,
2013-03-11 16:12:00,45.0,45.0,29.86,South,179,5.0,12.0,99,0.00,,,0.00,,2013-03-11 20:12:00,
2013-03-11 16:22:00,46.0,46.0,29.86,SSW,192,6.0,9.0,99,0.00,,,0.00,,2013-03-11 20:22:00,
2013-03-11 16:32:00,46.0,46.0,29.86,South,184,7.0,13.0,99,0.00,,,0.00,,2013-03-11 20:32:00,
2013-03-11 16:43:00,46.0,46.0,29.86,South,184,7.0,13.0,99,0.00,,,0.00,,2013-03-11 20:43:00,
2013-03-11 16:53:00,46.0,46.0,29.86,SSW,194,7.0,17.0,99,0.00,,,0.00,,2013-03-11 20:53:00,
2013-03-11 17:03:00,46.0,46.0,29.86,South,189,8.0,11.0,99,0.00,,,0.00,,2013-03-11 21:03:00,
2013-03-11 17:13:00,46.0,46.0,29.86,South,189,8.0,11.0,99,0.00,,,0.00,,2013-03-11 21:13:00,
2013-03-11 17:22:00,46.0,46.0,29.87,SSW,197,9.0,14.0,99,0.00,,,0.00,,2013-03-11 21:22:00,
2013-03-11 17:32:00,46.0,46.0,29.84,SSW,196,6.0,12.0,99,0.00,,,0.00,,2013-03-11 21:32:00,
2013-03-11 17:44:00,46.0,46.0,29.84,SSW,196,6.0,12.0,99,0.00,,,0.00,,2013-03-11 21:44:00,
2013-03-11 17:53:00,46.0,46.0,29.83,South,180,8.0,16.0,99,0.00,,,0.00,,2013-03-11 21:53:00,
2013-03-11 18:03:00,46.0,46.0,29.83,South,182,8.0,17.0,99,0.00,,,0.00,,2013-03-11 22:03:00,
2013-03-11 18:12:00,46.0,46.0,29.83,South,182,8.0,17.0,99,0.00,,,0.00,,2013-03-11 22:12:00,
2013-03-11 18:22:00,46.0,46.0,29.83,South,173,9.0,19.0,99,0.00,,,0.00,,2013-03-11 22:22:00,
2013-03-11 18:32:00,46.0,46.0,29.84,South,175,8.0,12.0,99,0.01,,,0.01,,2013-03-11 22:32:00,
2013-03-11 18:43:00,46.0,46.0,29.84,South,175,8.0,12.0,99,0.01,,,0.01,,2013-03-11 22:43:00,
2013-03-11 18:53:00,46.0,46.0,29.84,South,190,9.0,13.0,99,0.05,,,0.05,,2013-03-11 22:53:00,
2013-03-11 19:03:00,46.0,46.0,29.83,South,184,10.0,16.0,99,0.07,,,0.07,,2013-03-11 23:03:00,
2013-03-11 19:12:00,46.0,46.0,29.83,South,184,10.0,16.0,99,0.07,,,0.07,,2013-03-11 23:12:00,
2013-03-11 19:22:00,46.0,46.0,29.83,South,183,7.0,18.0,99,0.09,,,0.09,,2013-03-11 23:22:00,
2013-03-11 19:32:00,46.0,46.0,29.82,South,169,8.0,16.0,99,0.10,,,0.11,,2013-03-11 23:32:00,
2013-03-11 19:43:00,46.0,46.0,29.82,South,169,8.0,16.0,99,0.10,,,0.11,,2013-03-11 23:43:00,
2013-03-11 19:54:00,46.0,46.0,29.83,SSW,194,8.0,16.0,100,0.08,,,0.13,,2013-03-11 23:54:00,
2013-03-11 20:02:00,46.0,46.0,29.83,South,172,8.0,13.0,100,0.08,,,0.15,,2013-03-12 00:02:00,
2013-03-11 20:12:00,46.0,46.0,29.83,South,172,8.0,13.0,100,0.08,,,0.15,,2013-03-12 00:12:00,
2013-03-11 20:23:00,46.0,46.0,29.83,SSW,192,8.0,14.0,100,0.08,,,0.17,,2013-03-12 00:23:00,
2013-03-11 20:33:00,47.0,47.0,29.84,SSW,195,8.0,12.0,100,0.07,,,0.18,,2013-03-12 00:33:00,
2013-03-11 20:42:00,47.0,47.0,29.84,SSW,195,8.0,12.0,100,0.07,,,0.18,,2013-03-12 00:42:00,
2013-03-11 20:54:00,47.0,47.0,29.84,SSW,206,11.0,16.0,100,0.08,,,0.21,,2013-03-12 00:54:00,
2013-03-11 21:02:00,47.0,47.0,29.84,SSW,202,8.0,17.0,99,0.11,,,0.26,,2013-03-12 01:02:00,
2013-03-11 21:12:00,47.0,47.0,29.84,SSW,202,8.0,17.0,99,0.11,,,0.26,,2013-03-12 01:12:00,
2013-03-11 21:22:00,47.0,47.0,29.83,SSW,199,7.0,17.0,99,0.11,,,0.28,,2013-03-12 01:22:00,
2013-03-11 21:33:00,47.0,47.0,29.85,SW,235,6.0,12.0,99,0.17,,,0.35,,2013-03-12 01:33:00,
2013-03-11 21:42:00,47.0,47.0,29.85,SW,235,6.0,12.0,99,0.17,,,0.35,,2013-03-12 01:42:00,
2013-03-11 21:53:00,47.0,47.0,29.84,SSW,210,5.0,9.0,99,0.17,,,0.38,,2013-03-12 01:53:00,
2013-03-11 22:02:00,47.0,47.0,29.84,SSW,202,3.0,7.0,100,0.14,,,0.40,,2013-03-12 02:02:00,
2013-03-11 22:12:00,47.0,47.0,29.84,SSW,202,3.0,7.0,100,0.14,,,0.40,,2013-03-12 02:12:00,
2013-03-11 22:22:00,47.0,47.0,29.83,SW,217,4.0,7.0,100,0.14,,,0.42,,2013-03-12 02:22:00,
2013-03-11 22:32:00,47.0,47.0,29.84,SSW,205,5.0,9.0,100,0.08,,,0.43,,2013-03-12 02:32:00,
2013-03-11 22:42:00,47.0,47.0,29.84,SSW,205,5.0,9.0,100,0.08,,,0.43,,2013-03-12 02:42:00,
2013-03-11 22:52:00,47.0,47.0,29.84,SSW,209,3.0,7.0,100,0.05,,,0.43,,2013-03-12 02:52:00,
2013-03-11 23:02:00,47.0,47.0,29.83,SSW,209,2.0,4.0,100,0.05,,,0.45,,2013-03-12 03:02:00,
2013-03-11 23:12:00,47.0,47.0,29.83,SSW,209,2.0,4.0,100,0.05,,,0.45,,2013-03-12 03:12:00,
2013-03-11 23:22:00,47.0,47.0,29.82,South,191,6.0,9.0,100,0.04,,,0.46,,2013-03-12 03:22:00,
2013-03-11 23:32:00,47.0,47.0,29.82,South,184,5.0,11.0,100,0.04,,,0.47,,2013-03-12 03:32:00,
2013-03-11 23:42:00,47.0,47.0,29.82,South,184,5.0,11.0,100,0.04,,,0.47,,2013-03-12 03:42:00,
2013-03-11 23:53:00,47.0,47.0,29.80,SSW,194,6.0,9.0,100,0.05,,,0.48,,2013-03-12 03:53:00,